Year,Month,Day,Hour,Minute,Value (Times are PST for windspeed in km/hr)
2017,06,08,00,00,2.80
2017,06,08,00,01,3.60
2017,06,08,00,02,3.50
2017,06,08,00,03,5.50
2017,06,08,00,04,3.80
2017,06,08,00,05,3.20
2017,06,08,00,06,5.30
2017,06,08,00,07,1.60
2017,06,08,00,08,3.30
2017,06,08,00,09,5.90
2017,06,08,00,10,3.60
2017,06,08,00,11,2.30
2017,06,08,00,12,0.70
2017,06,08,00,13,0.20
2017,06,08,00,14,0.10
2017,06,08,00,15,0.10
2017,06,08,00,16,0.10
2017,06,08,00,17,0.30
2017,06,08,00,18,0.00
2017,06,08,00,19,0.00
2017,06,08,00,20,0.00
2017,06,08,00,21,0.00
2017,06,08,00,22,0.00
2017,06,08,00,23,0.00
2017,06,08,00,24,0.00
2017,06,08,00,25,0.00
2017,06,08,00,26,0.00
2017,06,08,00,27,0.20
2017,06,08,00,28,0.00
2017,06,08,00,29,0.20
2017,06,08,00,30,0.00
2017,06,08,00,31,0.00
2017,06,08,00,32,0.00
2017,06,08,00,33,0.00
2017,06,08,00,34,0.00
2017,06,08,00,35,0.00
2017,06,08,00,36,0.10
2017,06,08,00,37,0.00
2017,06,08,00,38,0.00
2017,06,08,00,39,0.00
2017,06,08,00,40,0.00
2017,06,08,00,41,0.00
2017,06,08,00,42,0.00
2017,06,08,00,43,0.00
2017,06,08,00,44,0.00
2017,06,08,00,45,0.00
2017,06,08,00,46,0.00
2017,06,08,00,47,0.00
2017,06,08,00,48,0.40
2017,06,08,00,49,0.00
2017,06,08,00,50,0.00
2017,06,08,00,51,0.00
2017,06,08,00,52,1.00
2017,06,08,00,53,1.60
2017,06,08,00,54,0.20
2017,06,08,00,55,1.00
2017,06,08,00,56,0.50
2017,06,08,00,57,0.00
2017,06,08,00,58,0.40
2017,06,08,00,59,0.80
2017,06,08,01,00,0.00
2017,06,08,01,01,0.00
2017,06,08,01,02,0.00
2017,06,08,01,03,0.00
2017,06,08,01,04,0.00
2017,06,08,01,05,0.50
2017,06,08,01,06,0.10
2017,06,08,01,07,0.00
2017,06,08,01,08,0.00
2017,06,08,01,09,0.00
2017,06,08,01,10,0.00
2017,06,08,01,11,0.00
2017,06,08,01,12,0.00
2017,06,08,01,13,0.00
2017,06,08,01,14,0.00
2017,06,08,01,15,0.00
2017,06,08,01,16,1.00
2017,06,08,01,17,2.00
2017,06,08,01,18,0.00
2017,06,08,01,19,0.00
2017,06,08,01,20,0.40
2017,06,08,01,21,1.40
2017,06,08,01,22,2.20
2017,06,08,01,23,2.30
2017,06,08,01,24,2.60
2017,06,08,01,25,1.60
2017,06,08,01,26,1.00
2017,06,08,01,27,0.40
2017,06,08,01,28,0.40
2017,06,08,01,29,0.00
2017,06,08,01,30,0.00
2017,06,08,01,31,0.00
2017,06,08,01,32,0.70
2017,06,08,01,33,1.20
2017,06,08,01,34,1.40
2017,06,08,01,35,1.10
2017,06,08,01,36,1.20
2017,06,08,01,37,1.80
2017,06,08,01,38,1.70
2017,06,08,01,39,1.30
2017,06,08,01,40,0.20
2017,06,08,01,41,0.30
2017,06,08,01,42,0.20
2017,06,08,01,43,0.20
2017,06,08,01,44,0.50
2017,06,08,01,45,2.00
2017,06,08,01,46,0.10
2017,06,08,01,47,0.00
2017,06,08,01,48,0.00
2017,06,08,01,49,0.00
2017,06,08,01,50,0.00
2017,06,08,01,51,0.40
2017,06,08,01,52,0.50
2017,06,08,01,53,0.10
2017,06,08,01,54,0.10
2017,06,08,01,55,0.70
2017,06,08,01,56,0.90
2017,06,08,01,57,0.60
2017,06,08,01,58,0.20
2017,06,08,01,59,0.10
2017,06,08,02,00,1.00
2017,06,08,02,01,1.60
2017,06,08,02,02,1.30
2017,06,08,02,03,1.80
2017,06,08,02,04,0.20
2017,06,08,02,05,0.10
2017,06,08,02,06,1.40
2017,06,08,02,07,0.60
2017,06,08,02,08,2.70
2017,06,08,02,09,2.40
2017,06,08,02,10,5.50
2017,06,08,02,11,3.40
2017,06,08,02,12,3.30
2017,06,08,02,13,1.20
2017,06,08,02,14,0.80
2017,06,08,02,15,0.20
2017,06,08,02,16,1.10
2017,06,08,02,17,0.40
2017,06,08,02,18,1.10
2017,06,08,02,19,2.50
2017,06,08,02,20,0.80
2017,06,08,02,21,0.60
2017,06,08,02,22,3.20
2017,06,08,02,23,2.80
2017,06,08,02,24,1.00
2017,06,08,02,25,0.30
2017,06,08,02,26,2.30
2017,06,08,02,27,5.90
2017,06,08,02,28,2.90
2017,06,08,02,29,0.20
2017,06,08,02,30,0.80
2017,06,08,02,31,2.70
2017,06,08,02,32,1.80
2017,06,08,02,33,1.10
2017,06,08,02,34,0.10
2017,06,08,02,35,0.00
2017,06,08,02,36,0.10
2017,06,08,02,37,1.60
2017,06,08,02,38,0.70
2017,06,08,02,39,1.10
2017,06,08,02,40,0.30
2017,06,08,02,41,0.00
2017,06,08,02,42,1.40
2017,06,08,02,43,0.00
2017,06,08,02,44,0.00
2017,06,08,02,45,0.70
2017,06,08,02,46,0.10
2017,06,08,02,47,0.10
2017,06,08,02,48,0.20
2017,06,08,02,49,0.10
2017,06,08,02,50,0.00
2017,06,08,02,51,0.00
2017,06,08,02,52,0.00
2017,06,08,02,53,0.00
2017,06,08,02,54,0.00
2017,06,08,02,55,0.00
2017,06,08,02,56,0.00
2017,06,08,02,57,0.00
2017,06,08,02,58,0.00
2017,06,08,02,59,0.00
2017,06,08,03,00,0.00
2017,06,08,03,01,0.00
2017,06,08,03,02,0.00
2017,06,08,03,03,0.00
2017,06,08,03,04,0.00
2017,06,08,03,05,0.00
2017,06,08,03,06,0.00
2017,06,08,03,07,0.00
2017,06,08,03,08,0.30
2017,06,08,03,09,0.70
2017,06,08,03,10,1.40
2017,06,08,03,11,1.90
2017,06,08,03,12,0.50
2017,06,08,03,13,0.00
2017,06,08,03,14,0.10
2017,06,08,03,15,2.10
2017,06,08,03,16,1.00
2017,06,08,03,17,0.00
2017,06,08,03,18,0.00
2017,06,08,03,19,0.00
2017,06,08,03,20,0.00
2017,06,08,03,21,0.00
2017,06,08,03,22,0.00
2017,06,08,03,23,0.00
2017,06,08,03,24,0.00
2017,06,08,03,25,0.00
2017,06,08,03,26,0.00
2017,06,08,03,27,0.00
2017,06,08,03,28,0.00
2017,06,08,03,29,0.00
2017,06,08,03,30,0.00
2017,06,08,03,31,0.00
2017,06,08,03,32,0.10
2017,06,08,03,33,0.00
2017,06,08,03,34,0.00
2017,06,08,03,35,0.00
2017,06,08,03,36,0.00
2017,06,08,03,37,0.40
2017,06,08,03,38,1.80
2017,06,08,03,39,2.10
2017,06,08,03,40,1.20
2017,06,08,03,41,1.40
2017,06,08,03,42,3.00
2017,06,08,03,43,1.40
2017,06,08,03,44,0.50
2017,06,08,03,45,1.80
2017,06,08,03,46,2.40
2017,06,08,03,47,3.00
2017,06,08,03,48,1.50
2017,06,08,03,49,3.60
2017,06,08,03,50,2.00
2017,06,08,03,51,5.10
2017,06,08,03,52,2.70
2017,06,08,03,53,1.40
2017,06,08,03,54,0.50
2017,06,08,03,55,1.10
2017,06,08,03,56,1.50
2017,06,08,03,57,1.50
2017,06,08,03,58,1.90
2017,06,08,03,59,1.70
2017,06,08,04,00,2.10
2017,06,08,04,01,1.20
2017,06,08,04,02,2.40
2017,06,08,04,03,1.60
2017,06,08,04,04,0.50
2017,06,08,04,05,1.70
2017,06,08,04,06,0.10
2017,06,08,04,07,0.00
2017,06,08,04,08,0.10
2017,06,08,04,09,0.00
2017,06,08,04,10,0.00
2017,06,08,04,11,0.00
2017,06,08,04,12,0.00
2017,06,08,04,13,0.00
2017,06,08,04,14,0.00
2017,06,08,04,15,0.00
2017,06,08,04,16,0.80
2017,06,08,04,17,0.20
2017,06,08,04,18,0.00
2017,06,08,04,19,0.20
2017,06,08,04,20,0.00
2017,06,08,04,21,0.20
2017,06,08,04,22,0.50
2017,06,08,04,23,1.70
2017,06,08,04,24,0.40
2017,06,08,04,25,0.00
2017,06,08,04,26,0.30
2017,06,08,04,27,0.30
2017,06,08,04,28,2.00
2017,06,08,04,29,1.80
2017,06,08,04,30,3.30
2017,06,08,04,31,0.90
2017,06,08,04,32,4.40
2017,06,08,04,33,3.00
2017,06,08,04,34,2.60
2017,06,08,04,35,3.20
2017,06,08,04,36,3.00
2017,06,08,04,37,3.30
2017,06,08,04,38,4.10
2017,06,08,04,39,3.60
2017,06,08,04,40,3.10
2017,06,08,04,41,3.80
2017,06,08,04,42,4.70
2017,06,08,04,43,4.90
2017,06,08,04,44,4.80
2017,06,08,04,45,4.90
2017,06,08,04,46,1.50
2017,06,08,04,47,5.00
2017,06,08,04,48,3.00
2017,06,08,04,49,1.80
2017,06,08,04,50,1.00
2017,06,08,04,51,0.10
2017,06,08,04,52,0.00
2017,06,08,04,53,0.00
2017,06,08,04,54,0.00
2017,06,08,04,55,0.00
2017,06,08,04,56,0.00
2017,06,08,04,57,0.00
2017,06,08,04,58,0.50
2017,06,08,04,59,2.20
2017,06,08,05,00,0.40
2017,06,08,05,01,0.00
2017,06,08,05,02,0.00
2017,06,08,05,03,0.00
2017,06,08,05,04,0.50
2017,06,08,05,05,0.30
2017,06,08,05,06,0.20
2017,06,08,05,07,2.10
2017,06,08,05,08,1.70
2017,06,08,05,09,0.10
2017,06,08,05,10,1.00
2017,06,08,05,11,0.10
2017,06,08,05,12,0.80
2017,06,08,05,13,0.80
2017,06,08,05,14,0.50
2017,06,08,05,15,0.00
2017,06,08,05,16,0.00
2017,06,08,05,17,0.00
2017,06,08,05,18,0.00
2017,06,08,05,19,0.50
2017,06,08,05,20,1.50
2017,06,08,05,21,0.70
2017,06,08,05,22,0.90
2017,06,08,05,23,2.60
2017,06,08,05,24,2.60
2017,06,08,05,25,3.40
2017,06,08,05,26,3.30
2017,06,08,05,27,2.60
2017,06,08,05,28,1.70
2017,06,08,05,29,2.70
2017,06,08,05,30,2.60
2017,06,08,05,31,0.30
2017,06,08,05,32,1.00
2017,06,08,05,33,2.00
2017,06,08,05,34,2.50
2017,06,08,05,35,3.20
2017,06,08,05,36,3.40
2017,06,08,05,37,3.50
2017,06,08,05,38,2.60
2017,06,08,05,39,2.30
2017,06,08,05,40,2.90
2017,06,08,05,41,2.10
2017,06,08,05,42,3.10
2017,06,08,05,43,2.70
2017,06,08,05,44,3.00
2017,06,08,05,45,4.30
2017,06,08,05,46,4.20
2017,06,08,05,47,3.70
2017,06,08,05,48,4.00
2017,06,08,05,49,3.20
2017,06,08,05,50,3.40
2017,06,08,05,51,4.50
2017,06,08,05,52,4.50
2017,06,08,05,53,3.50
2017,06,08,05,54,3.50
2017,06,08,05,55,2.00
2017,06,08,05,56,1.50
2017,06,08,05,57,3.40
2017,06,08,05,58,2.70
2017,06,08,05,59,1.20
2017,06,08,06,00,0.60
2017,06,08,06,01,1.80
2017,06,08,06,02,3.30
2017,06,08,06,03,3.90
2017,06,08,06,04,2.50
2017,06,08,06,05,2.90
2017,06,08,06,06,2.00
2017,06,08,06,07,1.50
2017,06,08,06,08,2.40
2017,06,08,06,09,3.00
2017,06,08,06,10,2.40
2017,06,08,06,11,2.40
2017,06,08,06,12,2.10
2017,06,08,06,13,3.20
2017,06,08,06,14,2.90
2017,06,08,06,15,4.00
2017,06,08,06,16,5.10
2017,06,08,06,17,3.70
2017,06,08,06,18,2.10
2017,06,08,06,19,4.20
2017,06,08,06,20,3.30
2017,06,08,06,21,2.60
2017,06,08,06,22,3.10
2017,06,08,06,23,3.90
2017,06,08,06,24,4.10
2017,06,08,06,25,3.60
2017,06,08,06,26,2.90
2017,06,08,06,27,3.70
2017,06,08,06,28,3.40
2017,06,08,06,29,3.10
2017,06,08,06,30,3.00
2017,06,08,06,31,2.60
2017,06,08,06,32,0.70
2017,06,08,06,33,1.90
2017,06,08,06,34,2.20
2017,06,08,06,35,1.60
2017,06,08,06,36,0.60
2017,06,08,06,37,0.30
2017,06,08,06,38,0.40
2017,06,08,06,39,0.00
2017,06,08,06,40,0.10
2017,06,08,06,41,0.20
2017,06,08,06,42,0.00
2017,06,08,06,43,0.00
2017,06,08,06,44,2.00
2017,06,08,06,45,1.90
2017,06,08,06,46,1.10
2017,06,08,06,47,1.30
2017,06,08,06,48,0.20
2017,06,08,06,49,0.30
2017,06,08,06,50,1.40
2017,06,08,06,51,2.30
2017,06,08,06,52,3.40
2017,06,08,06,53,3.10
2017,06,08,06,54,2.30
2017,06,08,06,55,2.60
2017,06,08,06,56,3.00
2017,06,08,06,57,3.40
2017,06,08,06,58,2.00
2017,06,08,06,59,1.10
2017,06,08,07,00,1.70
2017,06,08,07,01,1.90
2017,06,08,07,02,1.80
2017,06,08,07,03,2.40
2017,06,08,07,04,1.90
2017,06,08,07,05,1.40
2017,06,08,07,06,2.10
2017,06,08,07,07,3.10
2017,06,08,07,08,2.30
2017,06,08,07,09,2.40
2017,06,08,07,10,2.20
2017,06,08,07,11,1.30
2017,06,08,07,12,2.60
2017,06,08,07,13,2.30
2017,06,08,07,14,1.90
2017,06,08,07,15,1.00
2017,06,08,07,16,2.20
2017,06,08,07,17,1.00
2017,06,08,07,18,1.10
2017,06,08,07,19,1.70
2017,06,08,07,20,0.40
2017,06,08,07,21,0.10
2017,06,08,07,22,0.00
2017,06,08,07,23,0.20
2017,06,08,07,24,0.90
2017,06,08,07,25,1.30
2017,06,08,07,26,1.30
2017,06,08,07,27,0.50
2017,06,08,07,28,0.20
2017,06,08,07,29,0.00
2017,06,08,07,30,0.00
2017,06,08,07,31,0.00
2017,06,08,07,32,0.00
2017,06,08,07,33,0.00
2017,06,08,07,34,0.00
2017,06,08,07,35,0.00
2017,06,08,07,36,0.00
2017,06,08,07,37,0.00
2017,06,08,07,38,0.00
2017,06,08,07,39,0.00
2017,06,08,07,40,0.00
2017,06,08,07,41,0.00
2017,06,08,07,42,0.00
2017,06,08,07,43,0.00
2017,06,08,07,44,0.00
2017,06,08,07,45,0.00
2017,06,08,07,46,0.00
2017,06,08,07,47,0.00
2017,06,08,07,48,0.00
2017,06,08,07,49,0.00
2017,06,08,07,50,0.00
2017,06,08,07,51,0.00
2017,06,08,07,52,0.00
2017,06,08,07,53,0.00
2017,06,08,07,54,0.00
2017,06,08,07,55,0.00
2017,06,08,07,56,0.00
2017,06,08,07,57,0.10
2017,06,08,07,58,0.00
2017,06,08,07,59,0.00
2017,06,08,08,00,0.00
2017,06,08,08,01,0.00
2017,06,08,08,02,0.00
2017,06,08,08,03,0.00
2017,06,08,08,04,0.10
2017,06,08,08,05,0.00
2017,06,08,08,06,0.00
2017,06,08,08,07,0.00
2017,06,08,08,08,0.00
2017,06,08,08,09,0.00
2017,06,08,08,10,0.90
2017,06,08,08,11,2.30
2017,06,08,08,12,2.80
2017,06,08,08,13,3.20
2017,06,08,08,14,3.00
2017,06,08,08,15,2.80
2017,06,08,08,16,2.60
2017,06,08,08,17,2.10
2017,06,08,08,18,1.30
2017,06,08,08,19,2.60
2017,06,08,08,20,2.90
2017,06,08,08,21,1.40
2017,06,08,08,22,1.40
2017,06,08,08,23,1.60
2017,06,08,08,24,0.70
2017,06,08,08,25,0.10
2017,06,08,08,26,0.20
2017,06,08,08,27,0.00
2017,06,08,08,28,0.00
2017,06,08,08,29,0.30
2017,06,08,08,30,0.70
2017,06,08,08,31,1.60
2017,06,08,08,32,3.50
2017,06,08,08,33,5.30
2017,06,08,08,34,3.40
2017,06,08,08,35,3.90
2017,06,08,08,36,4.80
2017,06,08,08,37,3.40
2017,06,08,08,38,2.90
2017,06,08,08,39,3.40
2017,06,08,08,40,1.50
2017,06,08,08,41,0.00
2017,06,08,08,42,0.00
2017,06,08,08,43,0.00
2017,06,08,08,44,0.00
2017,06,08,08,45,0.00
2017,06,08,08,46,0.00
2017,06,08,08,47,0.00
2017,06,08,08,48,0.00
2017,06,08,08,49,0.00
2017,06,08,08,50,0.10
2017,06,08,08,51,0.10
2017,06,08,08,52,0.00
2017,06,08,08,53,0.30
2017,06,08,08,54,1.20
2017,06,08,08,55,2.70
2017,06,08,08,56,1.80
2017,06,08,08,57,1.10
2017,06,08,08,58,2.30
2017,06,08,08,59,3.10
2017,06,08,09,00,4.70
2017,06,08,09,01,4.60
2017,06,08,09,02,6.10
2017,06,08,09,03,6.10
2017,06,08,09,04,5.10
2017,06,08,09,05,5.60
2017,06,08,09,06,4.50
2017,06,08,09,07,4.90
2017,06,08,09,08,4.80
2017,06,08,09,09,4.50
2017,06,08,09,10,5.90
2017,06,08,09,11,6.00
2017,06,08,09,12,4.50
2017,06,08,09,13,6.90
2017,06,08,09,14,6.80
2017,06,08,09,15,6.60
2017,06,08,09,16,4.90
2017,06,08,09,17,6.80
2017,06,08,09,18,6.00
2017,06,08,09,19,7.30
2017,06,08,09,20,5.00
2017,06,08,09,21,4.20
2017,06,08,09,22,4.90
2017,06,08,09,23,4.50
2017,06,08,09,24,4.50
2017,06,08,09,25,5.20
2017,06,08,09,26,5.50
2017,06,08,09,27,3.70
2017,06,08,09,28,3.60
2017,06,08,09,29,2.70
2017,06,08,09,30,3.30
2017,06,08,09,31,3.70
2017,06,08,09,32,6.40
2017,06,08,09,33,7.90
2017,06,08,09,34,7.10
2017,06,08,09,35,7.20
2017,06,08,09,36,8.30
2017,06,08,09,37,7.50
2017,06,08,09,38,6.80
2017,06,08,09,39,7.00
2017,06,08,09,40,4.80
2017,06,08,09,41,6.00
2017,06,08,09,42,7.30
2017,06,08,09,43,6.10
2017,06,08,09,44,6.30
2017,06,08,09,45,5.50
2017,06,08,09,46,3.30
2017,06,08,09,47,1.90
2017,06,08,09,48,4.10
2017,06,08,09,49,0.70
2017,06,08,09,50,0.50
2017,06,08,09,51,1.10
2017,06,08,09,52,1.60
2017,06,08,09,53,6.10
2017,06,08,09,54,4.90
2017,06,08,09,55,2.90
2017,06,08,09,56,3.50
2017,06,08,09,57,2.70
2017,06,08,09,58,1.00
2017,06,08,09,59,1.00
2017,06,08,10,00,0.10
2017,06,08,10,01,1.20
2017,06,08,10,02,0.20
2017,06,08,10,03,0.90
2017,06,08,10,04,1.80
2017,06,08,10,05,3.70
2017,06,08,10,06,3.30
2017,06,08,10,07,1.60
2017,06,08,10,08,2.90
2017,06,08,10,09,1.00
2017,06,08,10,10,1.10
2017,06,08,10,11,0.30
2017,06,08,10,12,0.90
2017,06,08,10,13,3.00
2017,06,08,10,14,4.50
2017,06,08,10,15,3.00
2017,06,08,10,16,2.30
2017,06,08,10,17,1.30
2017,06,08,10,18,0.10
2017,06,08,10,19,0.70
2017,06,08,10,20,1.80
2017,06,08,10,21,1.70
2017,06,08,10,22,2.10
2017,06,08,10,23,1.30
2017,06,08,10,24,1.10
2017,06,08,10,25,0.00
2017,06,08,10,26,0.10
2017,06,08,10,27,0.40
2017,06,08,10,28,0.00
2017,06,08,10,29,0.10
2017,06,08,10,30,0.10
2017,06,08,10,31,2.50
2017,06,08,10,32,1.30
2017,06,08,10,33,0.80
2017,06,08,10,34,1.50
2017,06,08,10,35,1.80
2017,06,08,10,36,0.70
2017,06,08,10,37,0.50
2017,06,08,10,38,2.80
2017,06,08,10,39,1.40
2017,06,08,10,40,0.30
2017,06,08,10,41,0.10
2017,06,08,10,42,2.20
2017,06,08,10,43,3.60
2017,06,08,10,44,4.10
2017,06,08,10,45,2.60
2017,06,08,10,46,1.40
2017,06,08,10,47,1.30
2017,06,08,10,48,0.30
2017,06,08,10,49,0.00
2017,06,08,10,50,0.20
2017,06,08,10,51,0.00
2017,06,08,10,52,0.30
2017,06,08,10,53,0.70
2017,06,08,10,54,0.10
2017,06,08,10,55,0.10
2017,06,08,10,56,0.70
2017,06,08,10,57,0.00
2017,06,08,10,58,0.00
2017,06,08,10,59,0.00
2017,06,08,11,00,0.00
2017,06,08,11,01,0.00
2017,06,08,11,02,0.10
2017,06,08,11,03,0.10
2017,06,08,11,04,0.00
2017,06,08,11,05,0.00
2017,06,08,11,06,0.00
2017,06,08,11,07,0.00
2017,06,08,11,08,0.00
2017,06,08,11,09,0.80
2017,06,08,11,10,0.40
2017,06,08,11,11,1.20
2017,06,08,11,12,0.00
2017,06,08,11,13,0.20
2017,06,08,11,14,0.70
2017,06,08,11,15,0.50
2017,06,08,11,16,0.20
2017,06,08,11,17,0.40
2017,06,08,11,18,0.00
2017,06,08,11,19,0.00
2017,06,08,11,20,0.20
2017,06,08,11,21,0.00
2017,06,08,11,22,0.00
2017,06,08,11,23,0.00
2017,06,08,11,24,0.00
2017,06,08,11,25,0.00
2017,06,08,11,26,0.20
2017,06,08,11,27,0.40
2017,06,08,11,28,0.00
2017,06,08,11,29,1.10
2017,06,08,11,30,4.80
2017,06,08,11,31,5.50
2017,06,08,11,32,6.00
2017,06,08,11,33,6.40
2017,06,08,11,34,4.50
2017,06,08,11,35,4.20
2017,06,08,11,36,6.40
2017,06,08,11,37,2.80
2017,06,08,11,38,4.70
2017,06,08,11,39,6.90
2017,06,08,11,40,7.50
2017,06,08,11,41,8.90
2017,06,08,11,42,8.50
2017,06,08,11,43,9.20
2017,06,08,11,44,12.70
2017,06,08,11,45,9.80
2017,06,08,11,46,8.20
2017,06,08,11,47,7.70
2017,06,08,11,48,4.20
2017,06,08,11,49,4.10
2017,06,08,11,50,4.10
2017,06,08,11,51,5.60
2017,06,08,11,52,3.20
2017,06,08,11,53,3.90
2017,06,08,11,54,6.60
2017,06,08,11,55,7.50
2017,06,08,11,56,7.40
2017,06,08,11,57,6.00
2017,06,08,11,58,7.90
2017,06,08,11,59,6.70
2017,06,08,12,00,7.60
2017,06,08,12,01,9.20
2017,06,08,12,02,8.40
2017,06,08,12,03,6.30
2017,06,08,12,04,6.10
2017,06,08,12,05,8.40
2017,06,08,12,06,9.70
2017,06,08,12,07,6.00
2017,06,08,12,08,4.80
2017,06,08,12,09,7.10
2017,06,08,12,10,9.80
2017,06,08,12,11,8.60
2017,06,08,12,12,7.80
2017,06,08,12,13,7.50
2017,06,08,12,14,6.80
2017,06,08,12,15,8.90
2017,06,08,12,16,6.70
2017,06,08,12,17,7.60
2017,06,08,12,18,5.10
2017,06,08,12,19,4.30
2017,06,08,12,20,3.40
2017,06,08,12,21,2.90
2017,06,08,12,22,1.00
2017,06,08,12,23,4.50
2017,06,08,12,24,0.10
2017,06,08,12,25,1.70
2017,06,08,12,26,3.30
2017,06,08,12,27,3.20
2017,06,08,12,28,6.10
2017,06,08,12,29,3.30
2017,06,08,12,30,0.40
2017,06,08,12,31,2.40
2017,06,08,12,32,6.00
2017,06,08,12,33,5.90
2017,06,08,12,34,3.20
2017,06,08,12,35,6.40
2017,06,08,12,36,5.30
2017,06,08,12,37,5.30
2017,06,08,12,38,6.50
2017,06,08,12,39,9.10
2017,06,08,12,40,7.50
2017,06,08,12,41,9.50
2017,06,08,12,42,8.00
2017,06,08,12,43,8.60
2017,06,08,12,44,10.40
2017,06,08,12,45,5.80
2017,06,08,12,46,7.90
2017,06,08,12,47,12.60
2017,06,08,12,48,8.40
2017,06,08,12,49,3.90
2017,06,08,12,50,2.70
2017,06,08,12,51,6.40
2017,06,08,12,52,10.80
2017,06,08,12,53,11.00
2017,06,08,12,54,10.80
2017,06,08,12,55,9.20
2017,06,08,12,56,3.40
2017,06,08,12,57,4.20
2017,06,08,12,58,6.60
2017,06,08,12,59,5.80
2017,06,08,13,00,10.00
2017,06,08,13,01,7.70
2017,06,08,13,02,5.20
2017,06,08,13,03,6.70
2017,06,08,13,04,8.90
2017,06,08,13,05,12.50
2017,06,08,13,06,7.00
2017,06,08,13,07,15.30
2017,06,08,13,08,18.40
2017,06,08,13,09,17.20
2017,06,08,13,10,15.80
2017,06,08,13,11,9.70
2017,06,08,13,12,11.40
2017,06,08,13,13,16.00
2017,06,08,13,14,18.30
2017,06,08,13,15,13.90
2017,06,08,13,16,14.80
2017,06,08,13,17,17.20
2017,06,08,13,18,20.00
2017,06,08,13,19,15.40
2017,06,08,13,20,18.40
2017,06,08,13,21,19.40
2017,06,08,13,22,15.90
2017,06,08,13,23,22.60
2017,06,08,13,24,20.20
2017,06,08,13,25,21.90
2017,06,08,13,26,21.50
2017,06,08,13,27,15.10
2017,06,08,13,28,16.70
2017,06,08,13,29,19.60
2017,06,08,13,30,18.90
2017,06,08,13,31,18.90
2017,06,08,13,32,15.00
2017,06,08,13,33,16.00
2017,06,08,13,34,12.80
2017,06,08,13,35,16.10
2017,06,08,13,36,18.40
2017,06,08,13,37,19.30
2017,06,08,13,38,19.20
2017,06,08,13,39,18.90
2017,06,08,13,40,18.30
2017,06,08,13,41,23.20
2017,06,08,13,42,21.00
2017,06,08,13,43,20.00
2017,06,08,13,44,21.60
2017,06,08,13,45,17.20
2017,06,08,13,46,12.80
2017,06,08,13,47,9.90
2017,06,08,13,48,14.70
2017,06,08,13,49,9.40
2017,06,08,13,50,8.60
2017,06,08,13,51,12.40
2017,06,08,13,52,14.70
2017,06,08,13,53,14.40
2017,06,08,13,54,20.90
2017,06,08,13,55,14.50
2017,06,08,13,56,15.90
2017,06,08,13,57,16.70
2017,06,08,13,58,14.20
2017,06,08,13,59,19.50
2017,06,08,14,00,26.20
2017,06,08,14,01,15.80
2017,06,08,14,02,15.60
2017,06,08,14,03,14.00
2017,06,08,14,04,20.60
2017,06,08,14,05,12.90
2017,06,08,14,06,15.80
2017,06,08,14,07,17.60
2017,06,08,14,08,17.20
2017,06,08,14,09,18.70
2017,06,08,14,10,18.20
2017,06,08,14,11,20.70
2017,06,08,14,12,15.20
2017,06,08,14,13,13.30
2017,06,08,14,14,16.20
2017,06,08,14,15,23.20
2017,06,08,14,16,14.60
2017,06,08,14,17,26.80
2017,06,08,14,18,26.90
2017,06,08,14,19,26.00
2017,06,08,14,20,26.60
2017,06,08,14,21,20.80
2017,06,08,14,22,25.10
2017,06,08,14,23,19.30
2017,06,08,14,24,25.80
2017,06,08,14,25,14.30
2017,06,08,14,26,16.30
2017,06,08,14,27,18.40
2017,06,08,14,28,19.60
2017,06,08,14,29,13.80
2017,06,08,14,30,26.00
2017,06,08,14,31,23.30
2017,06,08,14,32,19.00
2017,06,08,14,33,21.80
2017,06,08,14,34,15.10
2017,06,08,14,35,23.00
2017,06,08,14,36,14.40
2017,06,08,14,37,15.40
2017,06,08,14,38,21.40
2017,06,08,14,39,22.10
2017,06,08,14,40,20.90
2017,06,08,14,41,24.40
2017,06,08,14,42,25.60
2017,06,08,14,43,23.20
2017,06,08,14,44,26.20
2017,06,08,14,45,23.00
2017,06,08,14,46,19.10
2017,06,08,14,47,23.00
2017,06,08,14,48,23.10
2017,06,08,14,49,24.00
2017,06,08,14,50,21.50
2017,06,08,14,51,18.20
2017,06,08,14,52,19.20
2017,06,08,14,53,24.10
2017,06,08,14,54,20.40
2017,06,08,14,55,21.00
2017,06,08,14,56,25.40
2017,06,08,14,57,25.40
2017,06,08,14,58,22.80
2017,06,08,14,59,27.10
2017,06,08,15,00,27.10
2017,06,08,15,01,28.60
2017,06,08,15,02,27.70
2017,06,08,15,03,23.40
2017,06,08,15,04,31.10
2017,06,08,15,05,24.10
2017,06,08,15,06,25.80
2017,06,08,15,07,21.00
2017,06,08,15,08,25.30
2017,06,08,15,09,27.20
2017,06,08,15,10,27.50
2017,06,08,15,11,21.80
2017,06,08,15,12,21.60
2017,06,08,15,13,20.40
2017,06,08,15,14,21.60
2017,06,08,15,15,26.80
2017,06,08,15,16,23.80
2017,06,08,15,17,27.70
2017,06,08,15,18,29.60
2017,06,08,15,19,29.20
2017,06,08,15,20,29.70
2017,06,08,15,21,21.30
2017,06,08,15,22,21.70
2017,06,08,15,23,21.30
2017,06,08,15,24,21.20
2017,06,08,15,25,19.80
2017,06,08,15,26,29.10
2017,06,08,15,27,24.50
2017,06,08,15,28,25.30
2017,06,08,15,29,20.70
2017,06,08,15,30,23.30
2017,06,08,15,31,22.50
2017,06,08,15,32,20.00
2017,06,08,15,33,26.90
2017,06,08,15,34,21.10
2017,06,08,15,35,22.20
2017,06,08,15,36,27.10
2017,06,08,15,37,20.20
2017,06,08,15,38,24.80
2017,06,08,15,39,28.40
2017,06,08,15,40,33.70
2017,06,08,15,41,31.50
2017,06,08,15,42,32.30
2017,06,08,15,43,19.80
2017,06,08,15,44,30.60
2017,06,08,15,45,23.90
2017,06,08,15,46,24.40
2017,06,08,15,47,28.80
2017,06,08,15,48,30.80
2017,06,08,15,49,23.60
2017,06,08,15,50,25.80
2017,06,08,15,51,33.80
2017,06,08,15,52,27.80
2017,06,08,15,53,31.40
2017,06,08,15,54,30.60
2017,06,08,15,55,25.80
2017,06,08,15,56,23.80
2017,06,08,15,57,17.90
2017,06,08,15,58,31.20
2017,06,08,15,59,24.80
2017,06,08,16,00,28.00
2017,06,08,16,01,21.50
2017,06,08,16,02,24.00
2017,06,08,16,03,25.10
2017,06,08,16,04,33.00
2017,06,08,16,05,24.70
2017,06,08,16,06,37.20
2017,06,08,16,07,31.40
2017,06,08,16,08,27.80
2017,06,08,16,09,34.00
2017,06,08,16,10,26.90
2017,06,08,16,11,30.50
2017,06,08,16,12,29.10
2017,06,08,16,13,29.70
2017,06,08,16,14,29.20
2017,06,08,16,15,29.30
2017,06,08,16,16,21.90
2017,06,08,16,17,25.10
2017,06,08,16,18,29.10
2017,06,08,16,19,30.50
2017,06,08,16,20,33.60
2017,06,08,16,21,29.40
2017,06,08,16,22,34.20
2017,06,08,16,23,34.50
2017,06,08,16,24,27.60
2017,06,08,16,25,27.70
2017,06,08,16,26,32.50
2017,06,08,16,27,24.50
2017,06,08,16,28,22.40
2017,06,08,16,29,22.40
2017,06,08,16,30,25.00
2017,06,08,16,31,20.00
2017,06,08,16,32,11.70
2017,06,08,16,33,18.30
2017,06,08,16,34,25.50
2017,06,08,16,35,24.20
2017,06,08,16,36,28.10
2017,06,08,16,37,32.10
2017,06,08,16,38,22.80
2017,06,08,16,39,18.60
2017,06,08,16,40,22.10
2017,06,08,16,41,25.20
2017,06,08,16,42,31.90
2017,06,08,16,43,28.80
2017,06,08,16,44,29.70
2017,06,08,16,45,24.90
2017,06,08,16,46,18.10
2017,06,08,16,47,23.00
2017,06,08,16,48,32.90
2017,06,08,16,49,30.00
2017,06,08,16,50,22.70
2017,06,08,16,51,25.60
2017,06,08,16,52,21.20
2017,06,08,16,53,19.70
2017,06,08,16,54,15.90
2017,06,08,16,55,14.90
2017,06,08,16,56,26.60
2017,06,08,16,57,22.30
2017,06,08,16,58,23.40
2017,06,08,16,59,22.50
2017,06,08,17,00,27.50
2017,06,08,17,01,20.60
2017,06,08,17,02,23.50
2017,06,08,17,03,20.40
2017,06,08,17,04,22.80
2017,06,08,17,05,17.90
2017,06,08,17,06,21.70
2017,06,08,17,07,22.50
2017,06,08,17,08,27.80
2017,06,08,17,09,22.40
2017,06,08,17,10,21.00
2017,06,08,17,11,25.00
2017,06,08,17,12,15.10
2017,06,08,17,13,14.40
2017,06,08,17,14,20.00
2017,06,08,17,15,28.40
2017,06,08,17,16,24.50
2017,06,08,17,17,17.60
2017,06,08,17,18,18.10
2017,06,08,17,19,11.60
2017,06,08,17,20,11.30
2017,06,08,17,21,20.20
2017,06,08,17,22,24.10
2017,06,08,17,23,20.10
2017,06,08,17,24,12.50
2017,06,08,17,25,19.60
2017,06,08,17,26,22.80
2017,06,08,17,27,19.20
2017,06,08,17,28,23.80
2017,06,08,17,29,21.30
2017,06,08,17,30,17.50
2017,06,08,17,31,16.60
2017,06,08,17,32,20.90
2017,06,08,17,33,25.00
2017,06,08,17,34,24.50
2017,06,08,17,35,24.60
2017,06,08,17,36,25.40
2017,06,08,17,37,19.50
2017,06,08,17,38,21.60
2017,06,08,17,39,23.00
2017,06,08,17,40,22.50
2017,06,08,17,41,23.70
2017,06,08,17,42,20.40
2017,06,08,17,43,25.10
2017,06,08,17,44,31.90
2017,06,08,17,45,15.10
2017,06,08,17,46,12.90
2017,06,08,17,47,20.70
2017,06,08,17,48,24.10
2017,06,08,17,49,23.60
2017,06,08,17,50,16.00
2017,06,08,17,51,19.20
2017,06,08,17,52,28.20
2017,06,08,17,53,25.80